Flag for Switzerland Weather past 2 weeks in Stäfa, Zurich, Switzerland

43 °F

Rain. Passing clouds.

Feels Like: 37 °F
Forecast: 33 / 52 °F
Wind: 9 mph from West

Location: Saint Gallen-Altenrhein

Current Time: Oct 14, 2015 at 1:19:21 AM

Latest Report: Oct 14, 2015 at 12:20 AM

Visibility: 4 mi

Pressure: 30.01 "Hg

Humidity: 87%

Dew point: 39 °F

Location of StäfaLocation

Historic Weather in Stäfa — Graph


Stäfa temperature yesterday

Maximum temperature yesterday: 50 °F (at 9:20 AM)
Minimum temperature yesterday: 45 °F (at 10:50 PM)
Average temperature yesterday: 49 °F

Past Weeks' High & Low Weather Summary

High66 °F (Oct 6, 3:50 PM)100% (Sep 30, 3:20 AM)30.36 "Hg (Sep 30, 3:20 AM)
Low37 °F (Sep 29, 7:20 AM)45% (Sep 29, 1:20 PM)29.74 "Hg (Oct 6, 10:50 AM)
Average52 °F83%30.05 "Hg
* Reported Sep 28 11:20 PM — Oct 13 11:20 PM, Stäfa, Weather by CustomWeather, © 2015

Note: Actual official high and low records may vary slightly from our data, if they occured in-between our weather recording intervals... More about our weather records


Stäfa weather history for previous 24 hours

Time TempWeatherWind HumidityBarometerVisibility
11:20 PM
Tue, Oct 13
45 °FRain. Passing clouds.12 mph81%30.01 "Hg4 mi
10:50 PM45 °FRain. Passing clouds.14 mph87%29.98 "Hg3 mi
10:20 PM46 °FRain. Passing clouds.14 mph87%29.98 "Hg4 mi
9:50 PM48 °FRain. Partly cloudy.12 mph87%29.95 "Hg4 mi
9:20 PM48 °FLight rain. Passing clouds.10 mph94%29.95 "Hg5 mi
8:50 PM48 °FRain. Partly cloudy.8 mph94%29.92 "Hg4 mi
8:20 PM50 °FLight rain. Overcast.3 mph94%29.92 "Hg3 mi
7:50 PM50 °FLight rain. Passing clouds.5 mph94%29.92 "Hg3 mi
7:20 PM50 °FLight rain. Partly sunny.3 mph100%29.92 "Hg6 mi
6:50 PM50 °FRain. Fog.2 mph100%29.92 "Hg1 mi
6:20 PM50 °FLight rain. Fog.2 mph100%29.92 "Hg2 mi
5:50 PM50 °FRain. Fog.2 mph100%29.92 "Hg2 mi
5:20 PM50 °FLight rain. Fog.No wind94%29.92 "Hg2 mi
4:50 PM50 °FLight rain. Fog.2 mph94%29.92 "Hg3 mi
4:20 PM50 °FLight rain. Fog.No wind94%29.92 "Hg3 mi
3:50 PM50 °FLight rain. Fog.2 mph94%29.89 "Hg2 mi
3:20 PM50 °FSprinkles. Fog.2 mph94%29.92 "Hg3 mi
2:50 PM50 °FLow clouds.3 mph94%29.92 "Hg3 mi
2:20 PM50 °FLow clouds.3 mph94%29.92 "Hg3 mi
1:50 PM50 °FPartly sunny.2 mph94%29.92 "Hg3 mi
1:20 PM50 °FPartly sunny.2 mph88%29.92 "Hg3 mi
12:50 PM50 °FPartly sunny.5 mph88%29.92 "Hg4 mi
12:20 PM50 °FPartly sunny.5 mph88%29.92 "Hg4 mi
11:50 AM50 °FFog.3 mph94%29.92 "Hg2 mi
11:20 AM48 °FFog.5 mph94%29.92 "Hg2 mi
10:50 AM48 °FFog.7 mph94%29.92 "Hg2 mi
10:20 AM48 °FFog.7 mph100%29.92 "Hg2 mi
9:50 AM48 °FFog.5 mph94%29.92 "Hg2 mi
9:20 AM50 °FFog.3 mph94%29.92 "Hg2 mi
8:50 AM48 °FFog.2 mph94%29.92 "Hg2 mi
8:20 AM48 °FFog.3 mph94%29.92 "Hg2 mi
7:50 AM48 °FFog.2 mph94%29.92 "Hg2 mi
7:20 AM48 °FFog.2 mph100%29.92 "Hg2 mi
6:50 AM48 °FLight rain. Fog.2 mph94%29.92 "Hg3 mi
6:20 AM48 °FLight rain. Fog.2 mph94%29.92 "Hg3 mi
5:50 AM48 °FDrizzle. Fog.2 mph94%29.92 "Hg2 mi
5:20 AM48 °FLight rain. Fog.2 mph94%29.92 "Hg2 mi
4:50 AM48 °FLight rain. Fog.No wind94%29.92 "Hg2 mi
4:20 AM48 °FLight rain. Fog.3 mph94%29.92 "Hg3 mi
3:50 AM48 °FLow clouds.5 mph94%29.95 "Hg3 mi
3:20 AM48 °FPassing clouds.2 mph94%29.95 "Hg3 mi
2:50 AM48 °FLow clouds.2 mph94%29.95 "Hg3 mi
2:20 AM48 °FLow clouds.2 mph94%29.95 "Hg3 mi
1:50 AM48 °FLow clouds.2 mph94%29.95 "Hg4 mi
1:20 AM48 °FLow clouds.2 mph94%29.95 "Hg4 mi
Weather by CustomWeather, © 2015

See weather overviewHow to use our weather pages